Tracking 25710 objects as of 6-Jul-2022
HD Live streaming from Space Station
objects crossing your sky now

USA 294

Track USA 294 now!
10-day predictions
USA 294 is classified as:


NORAD ID: 45110
Int'l Code: 2020-007A
Perigee: 570.0 km
Apogee: 577.3 km
Inclination: 70.0 °
Period: 96.0 minutes
Semi major axis: 6944 km
RCS: Unknown
Launch date: January 31, 2020
Source: United States (US)
Launch site: Rocket Lab Launch Complex (RLLC)

USA 294 (NROL-151) is a classified satellite launched by Rocket Lab for the U.S. National Reconnaissance Office.
aabbcc
Your satellite tracking list
Your tracking list is empty




NASA's NSSDC Master Catalog

Two Line Element Set (TLE):
1 45110U 20007A   22184.92336237 0.00007000  00000-0  55951-3 0    00
2 45110  69.9849  94.7679 0005290  59.6324 300.3675 15.00121839    09
Source of the keplerian elements: McCants